KB1WCR Weather Reports


time (UTC)temp
C
wind
direction
speed
KPH
gust
KPH
rain 1hr
cm
rain 24hr
cm
rain mn
cm
humidity
%
barometer
mb
20260831101118 11 347 0.0 1.6 0.00 0.00 0.00 99 1019.7
20260831100613 11 323 0.0 0.0 0.00 0.00 0.00 99 1019.6
20260831100109 11 310 0.0 0.0 0.00 0.00 0.00 98 1019.5
20260831095607 12 312 0.0 0.0 0.00 0.00 0.00 98 1019.6
20260831095102 12 315 0.0 0.0 0.00 0.00 0.00 97 1019.5
20260831094558 12 317 0.0 0.0 0.00 0.00 0.00 97 1019.4
20260831094054 12 318 0.0 1.6 0.00 0.00 0.00 97 1019.4
20260831093549 12 298 0.0 1.6 0.00 0.00 0.00 97 1019.4
20260831093045 12 244 1.6 1.6 0.00 0.00 0.00 97 1019.3
20260831092541 12 258 1.6 1.6 0.00 0.00 0.00 98 1019.2
20260831092036 12 277 1.6 3.2 0.00 0.00 0.00 99 1019.2
20260831091531 12 308 0.0 0.0 0.00 0.00 0.00 99 1019.2
20260831091026 11 313 0.0 0.0 0.00 0.00 0.00 99 1019.2
20260831090521 11 305 0.0 0.0 0.00 0.00 0.00 99 1019.1
20260831090018 11 310 0.0 0.0 0.00 0.00 0.00 99 1019.0
20260831085512 11 308 0.0 0.0 0.00 0.00 0.00 99 1019.0
20260831085007 11 327 0.0 0.0 0.00 0.00 0.00 99 1019.0
20260831084503 11 327 0.0 0.0 0.00 0.00 0.00 99 1018.9
20260831083959 11 330 0.0 0.0 0.00 0.00 0.00 99 1019.0
20260831083454 12 337 0.0 0.0 0.00 0.00 0.00 99 1018.8
20260831082953 12 344 0.0 0.0 0.00 0.00 0.00 98 1018.8
20260831082448 12 332 0.0 0.0 0.00 0.00 0.00 97 1018.8
20260831081943 12 349 1.6 1.6 0.00 0.00 0.00 97 1018.8
20260831081439 13 3 0.0 0.0 0.00 0.00 0.00 95 1018.6
20260831080934 13 310 0.0 0.0 0.00 0.00 0.00 94 1018.6
20260831080429 13 307 0.0 0.0 0.00 0.00 0.00 94 1018.6
20260831075925 13 304 0.0 0.0 0.00 0.00 0.00 95 1018.4
20260831075420 13 308 0.0 0.0 0.00 0.00 0.00 95 1018.2
20260831074916 13 268 0.0 0.0 0.00 0.00 0.00 95 1018.5
20260831074415 13 307 0.0 0.0 0.00 0.00 0.00 95 1018.4
20260831073909 13 11 0.0 0.0 0.00 0.00 0.00 95 1018.5
20260831073409 13 305 0.0 0.0 0.00 0.00 0.00 95 1018.3
20260831072903 13 302 0.0 0.0 0.00 0.00 0.00 95 1018.4
20260831072359 13 322 0.0 1.6 0.00 0.00 0.00 95 1018.4
20260831071855 13 291 0.0 1.6 0.00 0.00 0.00 94 1018.3
20260831071354 14 0 0.0 0.0 0.00 0.00 0.00 94 1018.4
20260831070849 14 303 0.0 0.0 0.00 0.00 0.00 93 1018.4
20260831070348 15 338 1.6 1.6 0.00 0.00 0.00 93 1018.4
20260831065848 15 305 0.0 0.0 0.00 0.00 0.00 93 1018.3
20260831065345 15 303 0.0 0.0 0.00 0.00 0.00 94 1018.2
20260831064841 14 282 1.6 3.2 0.00 0.00 0.00 94 1018.2
20260831064336 14 12 0.0 0.0 0.00 0.00 0.00 94 1018.4
20260831063832 15 313 0.0 0.0 0.00 0.00 0.00 94 1018.2
20260831063327 15 300 0.0 0.0 0.00 0.00 0.00 93 1018.3
20260831062827 15 294 1.6 1.6 0.00 0.00 0.00 93 1018.2
20260831062322 15 292 0.0 0.0 0.00 0.00 0.00 94 1018.1
20260831061820 15 285 1.6 3.2 0.00 0.00 0.00 95 1018.1
20260831061315 14 299 0.0 0.0 0.00 0.00 0.00 96 1018.2
20260831060811 14 307 0.0 0.0 0.00 0.00 0.00 97 1018.0
20260831060310 14 320 1.6 3.2 0.00 0.00 0.00 98 1017.9
20260831055810 14 259 1.6 1.6 0.00 0.00 0.00 98 1017.8
20260831055306 14 291 0.0 1.6 0.00 0.00 0.00 99 1017.8
20260831054801 13 302 0.0 1.6 0.00 0.00 0.00 99 1017.8
20260831054255 13 338 0.0 0.0 0.00 0.00 0.00 99 1017.9
20260831053754 13 301 0.0 0.0 0.00 0.00 0.00 99 1017.5
20260831053253 13 283 0.0 0.0 0.00 0.00 0.00 99 1017.8
20260831052748 13 298 0.0 0.0 0.00 0.00 0.00 99 1017.6
20260831052247 13 312 0.0 0.0 0.00 0.00 0.00 99 1017.7
20260831051745 13 291 0.0 0.0 0.00 0.00 0.00 99 1017.7
20260831051244 13 291 0.0 0.0 0.00 0.00 0.00 99 1017.5
20260831050739 13 310 0.0 0.0 0.00 0.00 0.00 99 1017.5
20260831050238 13 312 0.0 0.0 0.00 0.00 0.00 99 1017.4
20260831045732 13 307 0.0 0.0 0.00 0.00 0.00 99 1017.4
20260831045227 14 313 0.0 0.0 0.00 0.00 0.00 99 1017.4
20260831044722 14 302 0.0 0.0 0.00 0.00 0.00 98 1017.3
20260831044217 14 304 0.0 0.0 0.00 0.00 0.00 97 1017.3
20260831043713 15 312 0.0 0.0 0.00 0.00 0.00 96 1017.2
20260831043208 15 318 0.0 0.0 0.00 0.00 0.00 96 1017.2
20260831042707 15 292 0.0 0.0 0.00 0.00 0.00 96 1017.2
20260831042202 15 310 0.0 0.0 0.00 0.00 0.00 95 1017.3
20260831041657 15 310 0.0 0.0 0.00 0.00 0.00 94 1017.3
20260831041156 15 279 0.0 0.0 0.00 0.00 0.00 94 1017.2
20260831040652 16 298 0.0 0.0 0.00 0.00 0.00 94 1017.3
20260831040150 16 287 0.0 0.0 0.00 0.00 0.00 93 1017.3
20260831035649 16 265 0.0 0.0 0.00 0.00 0.00 92 1017.3
20260831035144 16 333 4.8 4.8 0.00 0.00 0.00 92 1017.2
20260831034642 16 299 1.6 1.6 0.00 0.00 0.00 91 1017.3
20260831034138 16 290 0.0 1.6 0.00 0.00 0.00 90 1017.5
20260831033634 17 297 1.6 1.6 0.00 0.00 0.00 89 1017.2
20260831033129 17 279 0.0 0.0 0.00 0.00 0.00 89 1017.1
20260831032629 17 313 0.0 0.0 0.00 0.00 0.00 89 1017.1
20260831032124 17 300 0.0 0.0 0.00 0.00 0.00 88 1017.0
20260831031619 17 308 0.0 0.0 0.00 0.00 0.00 88 1016.9
20260831031118 17 299 0.0 0.0 0.00 0.00 0.00 87 1017.0
20260831030617 17 298 0.0 0.0 0.00 0.00 0.00 87 1017.3
20260831030116 17 316 0.0 0.0 0.00 0.00 0.00 87 1017.4
20260831025615 17 307 0.0 0.0 0.00 0.00 0.00 86 1017.2
20260831025110 17 290 0.0 0.0 0.00 0.00 0.00 86 1017.3
20260831024606 17 311 1.6 3.2 0.00 0.00 0.00 87 1017.4
20260831024105 17 289 1.6 1.6 0.00 0.00 0.00 86 1017.5
20260831023603 17 356 1.6 3.2 0.00 0.00 0.00 85 1017.7
20260831023102 17 309 3.2 4.8 0.00 0.00 0.00 85 1017.6
20260831022557 17 356 3.2 4.8 0.00 0.00 0.00 84 1017.5
20260831022052 18 65 6.4 9.7 0.00 0.00 0.00 83 1017.4
20260831021551 18 38 4.8 6.4 0.00 0.00 0.00 81 1017.7
20260831021047 18 8 1.6 1.6 0.00 0.00 0.00 79 1017.3
20260831020542 19 278 3.2 4.8 0.00 0.00 0.00 76 1017.1
20260831020037 20 305 11.3 14.5 0.00 0.00 0.00 75 1017.2
20260831015533 20 23 6.4 11.3 0.00 0.00 0.00 75 1016.9
20260831015027 20 288 1.6 3.2 0.00 0.00 0.00 78 1016.9
20260831014522 18 354 1.6 1.6 0.00 0.00 0.00 90 1016.4
20260831014018 18 310 0.0 1.6 0.00 0.00 0.00 91 1016.2
20260831013514 18 302 0.0 0.0 0.00 0.00 0.00 91 1016.1
20260831013008 18 318 0.0 0.0 0.00 0.00 0.00 91 1016.0
20260831012502 18 313 0.0 0.0 0.00 0.00 0.00 91 1015.7
20260831011956 18 316 0.0 0.0 0.00 0.00 0.00 91 1015.8
20260831011451 18 314 0.0 0.0 0.00 0.00 0.00 90 1015.8
20260831010948 18 316 0.0 0.0 0.00 0.00 0.00 90 1015.7
20260831010447 18 304 0.0 0.0 0.00 0.00 0.00 90 1015.6
20260831005943 18 314 0.0 0.0 0.00 0.00 0.00 90 1015.6
20260831005439 18 316 0.0 0.0 0.00 0.00 0.00 89 1015.4
20260831004938 18 311 0.0 0.0 0.00 0.00 0.00 87 1015.5
20260831004435 18 308 0.0 0.0 0.00 0.00 0.00 86 1015.4
20260831003930 19 308 0.0 0.0 0.00 0.00 0.00 86 1015.4
20260831003426 20 308 0.0 0.0 0.00 0.00 0.00 84 1015.2
20260831002925 20 308 0.0 0.0 0.00 0.00 0.00 82 1015.4
20260831002424 20 300 0.0 0.0 0.00 0.00 0.00 82 1015.4
20260831001920 20 316 0.0 0.0 0.00 0.00 0.00 82 1015.3
20260831001415 20 310 0.0 0.0 0.00 0.00 0.00 82 1015.4
20260831000913 20 300 0.0 0.0 0.00 0.00 0.00 82 1015.2
20260831000410 20 305 0.0 0.0 0.00 0.00 0.00 81 1015.0
20260830235906 20 307 0.0 0.0 0.00 0.00 0.00 80 1015.1
20260830235401 20 309 0.0 0.0 0.00 0.00 0.00 79 1015.0
20260830234856 21 303 0.0 0.0 0.00 0.00 0.00 78 1014.9
20260830234351 21 310 0.0 0.0 0.00 0.00 0.00 78 1014.9
20260830233848 21 303 0.0 0.0 0.00 0.00 0.00 77 1015.1
20260830233343 21 305 0.0 0.0 0.00 0.00 0.00 76 1015.0
20260830232838 21 306 0.0 0.0 0.00 0.00 0.00 75 1015.0
20260830232334 21 301 1.6 1.6 0.00 0.00 0.00 74 1015.0
20260830231830 21 294 0.0 0.0 0.00 0.00 0.00 74 1015.0
20260830231325 21 318 0.0 0.0 0.00 0.00 0.00 75 1014.9
20260830230824 22 289 3.2 6.4 0.00 0.00 0.00 72 1015.1
20260830230320 21 302 3.2 4.8 0.00 0.00 0.00 72 1014.9
20260830225820 21 301 1.6 3.2 0.00 0.00 0.00 73 1014.8
20260830225314 21 301 0.0 0.0 0.00 0.00 0.00 74 1015.1
20260830224809 21 286 0.0 1.6 0.00 0.00 0.00 73 1014.9
20260830224303 21 284 1.6 1.6 0.00 0.00 0.00 73 1014.9
20260830223800 21 273 0.0 0.0 0.00 0.00 0.00 75 1015.0
20260830223255 22 294 0.0 0.0 0.00 0.00 0.00 74 1014.9
20260830222749 21 289 1.6 1.6 0.00 0.00 0.00 73 1015.0
20260830222246 21 294 0.0 0.0 0.00 0.00 0.00 74 1015.2
20260830221740 22 268 0.0 0.0 0.00 0.00 0.00 75 1015.2
20260830221238 22 293 0.0 0.0 0.00 0.00 0.00 75 1014.9
20260830220733 22 284 0.0 0.0 0.00 0.00 0.00 75 1014.7
20260830220231 22 317 0.0 1.6 0.00 0.00 0.00 75 1015.1
20260830215730 22 294 0.0 0.0 0.00 0.00 0.00 75 1014.9
20260830215225 22 269 1.6 3.2 0.00 0.00 0.00 75 1015.1
20260830214720 22 294 1.6 1.6 0.00 0.00 0.00 76 1015.0
20260830214220 22 280 1.6 1.6 0.00 0.00 0.00 76 1015.0
20260830213719 22 280 0.0 1.6 0.00 0.00 0.00 77 1014.9
20260830213219 22 290 0.0 1.6 0.00 0.00 0.00 77 1015.2
20260830212715 22 272 0.0 0.0 0.00 0.00 0.00 77 1014.9
20260830212211 22 288 0.0 0.0 0.00 0.00 0.00 78 1014.9
20260830211706 22 289 0.0 0.0 0.00 0.00 0.00 78 1015.2
20260830211204 22 297 0.0 0.0 0.00 0.00 0.00 77 1015.2
20260830210700 22 289 0.0 0.0 0.00 0.00 0.00 78 1015.2
20260830210200 22 245 0.0 0.0 0.00 0.00 0.00 76 1015.2
20260830205657 23 273 0.0 1.6 0.00 0.00 0.00 77 1015.3
20260830205153 22 288 0.0 0.0 0.00 0.00 0.00 77 1015.1
20260830204652 23 274 1.6 1.6 0.00 0.00 0.00 77 1015.1
20260830204151 22 264 0.0 0.0 0.00 0.00 0.00 78 1015.2
20260830203648 22 263 0.0 1.6 0.00 0.00 0.00 81 1015.2
20260830203143 22 284 0.0 0.0 0.00 0.00 0.00 83 1015.2
20260830202643 22 286 0.0 0.0 0.00 0.00 0.00 83 1015.3
20260830202138 21 291 0.0 0.0 0.00 0.00 0.00 84 1015.4
20260830201638 21 286 0.0 0.0 0.00 0.00 0.00 85 1015.4
20260830201133 21 308 0.0 0.0 0.00 0.00 0.00 84 1015.5
20260830200628 21 301 0.0 0.0 0.00 0.00 0.00 85 1015.5
20260830200127 21 296 0.0 0.0 0.00 0.00 0.00 85 1015.4
20260830195623 21 290 0.0 0.0 0.00 0.00 0.00 84 1015.6
20260830195120 21 288 0.0 0.0 0.00 0.00 0.00 84 1015.7
20260830194615 21 239 1.6 3.2 0.00 0.00 0.00 84 1015.7
20260830194114 21 283 1.6 1.6 0.00 0.00 0.00 85 1015.7
20260830193609 21 298 1.6 1.6 0.00 0.00 0.00 85 1015.6
20260830193104 21 284 0.0 0.0 0.00 0.00 0.00 86 1015.6
20260830192600 21 274 0.0 0.0 0.00 0.00 0.00 86 1016.0
20260830192059 21 266 1.6 1.6 0.00 0.00 0.00 85 1015.9
20260830191554 21 214 1.6 3.2 0.00 0.00 0.00 86 1016.0
20260830191044 21 259 1.6 3.2 0.00 0.00 0.00 87 1016.0
20260830190539 21 286 1.6 1.6 0.00 0.00 0.00 87 1016.3
20260830190034 21 236 1.6 1.6 0.00 0.00 0.00 87 1016.3
20260830185527 21 245 1.6 3.2 0.00 0.00 0.00 87 1016.5
20260830185023 21 297 1.6 1.6 0.00 0.00 0.00 87 1016.3
20260830184522 21 256 1.6 1.6 0.00 0.00 0.00 87 1016.4
20260830184012 21 290 0.0 0.0 0.00 0.00 0.00 87 1016.7
20260830183512 21 254 1.6 3.2 0.00 0.00 0.00 85 1016.7
20260830183008 21 259 1.6 1.6 0.00 0.00 0.00 85 1016.5
20260830182503 21 294 0.0 0.0 0.00 0.00 0.00 83 1016.5
20260830181959 21 293 0.0 0.0 0.00 0.00 0.00 85 1016.8
20260830181454 21 294 0.0 0.0 0.00 0.00 0.00 86 1016.9
20260830180949 21 283 0.0 0.0 0.00 0.00 0.00 81 1016.9
20260830180448 21 313 0.0 1.6 0.00 0.00 0.00 81 1017.1
20260830175946 21 251 1.6 1.6 0.00 0.00 0.00 83 1017.0
20260830175441 21 323 3.2 3.2 0.00 0.00 0.00 78 1017.1
20260830174936 21 299 3.2 3.2 0.00 0.00 0.00 78 1017.0
20260830174432 22 316 1.6 1.6 0.00 0.00 0.00 78 1017.2
20260830173921 22 253 4.8 4.8 0.00 0.00 0.00 76 1017.1
20260830173417 22 310 3.2 3.2 0.00 0.00 0.00 77 1017.3
20260830172913 22 310 1.6 1.6 0.00 0.00 0.00 76 1017.4
20260830172409 22 282 0.0 0.0 0.00 0.00 0.00 77 1017.3
20260830171904 22 277 1.6 1.6 0.00 0.00 0.00 74 1017.4
20260830171359 22 292 0.0 0.0 0.00 0.00 0.00 74 1017.5
20260830170859 22 230 3.2 4.8 0.00 0.00 0.00 71 1017.3
20260830170354 23 272 0.0 1.6 0.00 0.00 0.00 72 1017.2
20260830165852 23 286 0.0 0.0 0.00 0.00 0.00 73 1017.4
20260830165349 23 255 1.6 1.6 0.00 0.00 0.00 72 1017.3
20260830164845 23 291 0.0 1.6 0.00 0.00 0.00 71 1017.1
20260830164340 23 281 0.0 0.0 0.00 0.00 0.00 72 1017.2
20260830163836 23 235 1.6 1.6 0.00 0.00 0.00 69 1017.2
20260830163331 23 256 1.6 1.6 0.00 0.00 0.00 69 1017.3
20260830162826 24 289 0.0 0.0 0.00 0.00 0.00 69 1017.3
20260830162323 24 273 1.6 1.6 0.00 0.00 0.00 67 1017.3
20260830161818 24 269 0.0 0.0 0.00 0.00 0.00 67 1017.3
20260830161317 24 285 1.6 1.6 0.00 0.00 0.00 68 1017.5
20260830160812 24 282 1.6 1.6 0.00 0.00 0.00 66 1017.4
20260830160307 24 299 0.0 0.0 0.00 0.00 0.00 66 1017.6
20260830155803 25 252 1.6 3.2 0.00 0.00 0.00 68 1017.6
20260830155259 24 256 1.6 1.6 0.00 0.00 0.00 69 1017.5
20260830154754 25 17 3.2 3.2 0.00 0.00 0.00 65 1017.5
20260830154249 25 294 0.0 0.0 0.00 0.00 0.00 66 1017.5
20260830153746 24 275 0.0 1.6 0.00 0.00 0.00 67 1017.4
20260830153241 24 288 0.0 1.6 0.00 0.00 0.00 68 1017.7
20260830152739 24 236 3.2 4.8 0.00 0.00 0.00 65 1017.8
20260830152234 25 252 1.6 3.2 0.00 0.00 0.00 65 1017.6
20260830151728 24 305 1.6 1.6 0.00 0.00 0.00 66 1017.9
20260830151228 23 242 1.6 3.2 0.00 0.00 0.00 70 1017.7
20260830150723 23 246 1.6 3.2 0.00 0.00 0.00 68 1017.8
20260830150217 23 234 3.2 3.2 0.00 0.00 0.00 69 1017.9
20260830145712 23 301 1.6 1.6 0.00 0.00 0.00 70 1018.1
20260830145207 23 353 1.6 1.6 0.00 0.00 0.00 71 1018.1
20260830144702 23 299 1.6 1.6 0.00 0.00 0.00 72 1018.0
20260830144158 23 229 1.6 3.2 0.00 0.00 0.00 68 1018.3
20260830143654 24 232 1.6 3.2 0.00 0.00 0.00 68 1018.1
20260830143152 23 63 1.6 1.6 0.00 0.00 0.00 69 1018.1
20260830142647 23 269 0.0 0.0 0.00 0.00 0.00 70 1018.3
20260830142142 23 239 3.2 3.2 0.00 0.00 0.00 72 1018.3
20260830141637 22 292 0.0 1.6 0.00 0.00 0.00 72 1018.4
20260830141132 22 310 1.6 1.6 0.00 0.00 0.00 72 1018.2
20260830140627 22 274 0.0 1.6 0.00 0.00 0.00 74 1018.3
20260830140121 21 277 0.0 0.0 0.00 0.00 0.00 75 1018.4
20260830135616 21 277 0.0 0.0 0.00 0.00 0.00 76 1018.3
20260830135111 21 245 0.0 0.0 0.00 0.00 0.00 75 1018.6
20260830134606 21 315 3.2 4.8 0.00 0.00 0.00 73 1018.2
20260830134101 20 269 0.0 0.0 0.00 0.00 0.00 78 1018.3
20260830133557 20 314 0.0 0.0 0.00 0.00 0.00 79 1018.5
20260830133052 19 266 0.0 0.0 0.00 0.00 0.00 80 1018.5
20260830132548 18 302 0.0 0.0 0.00 0.00 0.00 84 1018.6
20260830132043 18 307 0.0 0.0 0.00 0.00 0.00 84 1018.5
20260830131542 18 270 0.0 0.0 0.00 0.00 0.00 83 1018.3
20260830131037 18 296 0.0 0.0 0.00 0.00 0.00 86 1018.5
20260830130532 17 284 0.0 0.0 0.00 0.00 0.00 87 1018.4
20260830130027 17 286 0.0 0.0 0.00 0.00 0.00 86 1018.5
20260830125522 17 289 0.0 0.0 0.00 0.00 0.00 86 1018.4
20260830125021 16 288 0.0 0.0 0.00 0.00 0.00 88 1018.8
20260830124520 16 334 1.6 1.6 0.00 0.00 0.00 90 1018.6
20260830124016 16 291 0.0 0.0 0.00 0.00 0.00 92 1018.8
20260830123513 16 309 0.0 0.0 0.00 0.00 0.00 92 1018.7
20260830123008 15 287 0.0 0.0 0.00 0.00 0.00 94 1019.0
20260830122505 15 317 0.0 0.0 0.00 0.00 0.00 95 1018.7
20260830122000 15 318 0.0 0.0 0.00 0.00 0.00 96 1018.8
20260830121455 15 310 0.0 0.0 0.00 0.00 0.00 97 1018.6
20260830120949 15 304 0.0 0.0 0.00 0.00 0.00 96 1018.9
20260830120445 14 316 0.0 0.0 0.00 0.00 0.00 98 1018.7
20260830115941 13 300 0.0 0.0 0.00 0.00 0.00 98 1018.9
20260830115431 13 286 0.0 0.0 0.00 0.00 0.00 99 1018.9
20260830114926 13 287 0.0 0.0 0.00 0.00 0.00 99 1018.7
20260830114423 13 296 0.0 0.0 0.00 0.00 0.00 99 1018.9
20260830113923 13 298 0.0 0.0 0.00 0.00 0.00 99 1019.0
20260830113418 13 294 0.0 0.0 0.00 0.00 0.00 99 1019.1
20260830112914 13 298 0.0 0.0 0.00 0.00 0.00 99 1018.9
20260830112410 13 313 0.0 0.0 0.00 0.00 0.00 99 1018.9
20260830111905 13 350 0.0 0.0 0.00 0.00 0.00 99 1018.9
20260830111400 13 324 0.0 0.0 0.00 0.00 0.00 99 1018.8
20260830110856 12 315 0.0 0.0 0.00 0.00 0.00 99 1018.8
20260830110352 12 310 0.0 0.0 0.00 0.00 0.00 99 1018.8
20260830105850 12 315 0.0 0.0 0.00 0.00 0.00 99 1018.6
20260830105347 12 305 0.0 0.0 0.00 0.00 0.00 99 1018.7
20260830104843 11 300 0.0 0.0 0.00 0.00 0.00 99 1018.7
20260830104340 11 301 0.0 0.0 0.00 0.00 0.00 99 1018.8
20260830103838 11 308 0.0 0.0 0.00 0.00 0.00 99 1018.9
20260830103335 10 308 0.0 0.0 0.00 0.00 0.00 99 1019.0
20260830102832 10 304 0.0 0.0 0.00 0.00 0.00 99 1019.2
20260830102329 10 313 0.0 0.0 0.00 0.00 0.00 99 1019.3
20260830101825 10 314 0.0 0.0 0.00 0.00 0.00 99 1019.0
20260830101319 10 309 0.0 0.0 0.00 0.00 0.00 99 1019.3